Regional Weather Roundup
Issued by NWS

Home | Current Version | Previous Version | Graphics & Text | Print | Product List | Glossary On
Versions: 1 2 3 4 5 6 7 8 9 10 11 12 13 14 15 16 17 18 19 20 21 22 23 24 25 26 27 28 29 30 31 32 33 34 35 36 37 38 39 40 41 42 43 44 45 46 47 48 49 50
000
ASUS43 KLSX 221307
RWRMO

WEATHER SUMMARY FOR MISSOURI
NATIONAL WEATHER SERVICE SPRINGFIELD MO
700 AM CST SAT NOV 22 2014

NOTE: "FAIR" INDICATES FEW OR NO CLOUDS BELOW 12,000 FEET WITH NO
       SIGNIFICANT WEATHER AND/OR OBSTRUCTIONS TO VISIBILITY.
       CURRENT SKY AND/OR WEATHER CONDITIONS ARE NOT AVAILABLE FOR
       CHILLICOTHE AND FARMINGTON.

MOZ001>031-035>038-043-044-053-054-221400-
...NORTHERN AND WESTERN MISSOURI...

CITY           SKY/WX    TMP DP  RH WIND       PRES   REMARKS
KANSAS CTY INT DRZL/FOG  52  52 100 SW13      29.95F VSB 1/2
KANSAS C DTWN  CLOUDY    53  51  93 SW3       29.96F FOG
ST JOSEPH      FOG       43  43 100 S3        29.95F VSB 1/2
CHILLICOTHE      N/A     51  49  92 S7        29.97F
KIRKSVILLE     CLOUDY    49  47  93 S13       29.97F

$$
MOZ066>068-077>081-088>096-101>105-221400-
...SOUTHWEST MISSOURI...

CITY           SKY/WX    TMP DP  RH WIND       PRES   REMARKS
SPRINGFIELD    CLOUDY    50  45  83 S13       30.07S
JOPLIN         CLOUDY    56  50  80 S17       30.04S

$$
MOZ032>034-039>042-045>050-055>058-069>072-221400-
...CENTRAL MISSOURI...

CITY           SKY/WX    TMP DP  RH WIND       PRES   REMARKS
COLUMBIA       CLOUDY    51  45  79 S12       30.04F
JEFFERSON CITY MOCLDY    51  44  77 S7        30.06F
ROLLA          PTCLDY    48  43  82 S14       30.07F
SEDALIA        MOCLDY    52  46  80 S13       30.02S
WHITEMAN AFB   PTCLDY    50  46  87 S13       29.99F
WARRENSBURG    CLOUDY    52  46  82 S9        29.99F
OSAGE BEACH    CLOUDY    48  43  81 SE8       30.06F

$$
MOZ051-052-059>065-221400-
...EAST CENTRAL MISSOURI...

CITY           SKY/WX    TMP DP  RH WIND       PRES   REMARKS
ST LOUIS INTL  MOCLDY    48  39  71 S7        30.10F
SPIRIT OF STL  MOCLDY    42  39  89 S3        30.09F
ST CHARLES     CLOUDY    38  36  92 E7        30.09F

$$
MOZ072>076-082>087-097>100-106>115-221400-
...SOUTH CENTRAL AND SOUTHEAST MISSOURI...

CITY           SKY/WX    TMP DP  RH WIND       PRES   REMARKS
CAPE GIRARDEAU CLOUDY    50  44  80 S9        30.22F
FARMINGTON     CLOUDY    48  43  81 SE13      30.17F
POPLAR BLUFF   LGT RAIN  43  40  89 CALM      30.22R
WEST PLAINS    CLOUDY    45  42  89 S7        30.15F

$$



USA.gov is the U.S. government's official web portal to all federal, state and local government web resources and services.